Location: Goll?ig?dem
(16.6773°N, 80.7332°E)
Time: 06:39:52
(UTC+00:00)

Helios 1A Rocket - Pass Details

Date: 21 April 2021
Orbit: 564 x 584 km, 98.3° (Epoch: 05 May)

Event Time Altitude Azimuth Distance (km) Brightness Sun altitude
Exits shadow 13:44:40 19° 116° (ESE) 1,393 4.2 -12.6°
Maximum altitude 13:46:32 26° 75° (ENE) 1,128 3.9 -13.0°
Drops below altitude 10° 13:49:57 10° 18° (NNE) 1,876 5.5 -13.8°
Sets 13:52:20 0° 5° (N) 2,778 6.6 -14.3°
